Time,TemperatureF,DewpointF,PressureIn,WindDirection,WindDirectionDegrees,WindSpeedMPH,WindSpeedGustMPH,Humidity,HourlyPrecipIn,Conditions,Clouds,dailyrainin,SoftwareType,DateUTC
2013-03-05 00:00:00,53.0,47.0,-100.00,ENE,70,0.0,-999.0,79,0.00,,,0.00,,2013-03-05 06:00:00,
2013-03-05 00:32:00,53.0,47.0,-100.00,ENE,70,0.0,-999.0,79,0.00,,,0.00,,2013-03-05 06:32:00,
2013-03-05 00:42:00,53.0,47.0,-100.00,ENE,70,0.0,-999.0,79,0.00,,,0.00,,2013-03-05 06:42:00,
2013-03-05 00:52:00,53.0,47.0,-100.00,ENE,70,0.0,-999.0,79,0.00,,,0.00,,2013-03-05 06:52:00,
2013-03-05 01:00:00,57.0,43.0,-100.00,NW,307,6.0,-999.0,61,0.00,,,0.00,,2013-03-05 07:00:00,
2013-03-05 01:31:00,57.0,43.0,-100.00,NW,307,6.0,-999.0,61,0.00,,,0.00,,2013-03-05 07:31:00,
2013-03-05 01:42:00,57.0,43.0,-100.00,NW,307,6.0,-999.0,61,0.00,,,0.00,,2013-03-05 07:42:00,
2013-03-05 01:52:00,57.0,43.0,-100.00,NW,307,6.0,-999.0,61,0.00,,,0.00,,2013-03-05 07:52:00,
2013-03-05 03:00:00,49.0,37.0,-100.00,NW,308,12.0,-999.0,64,0.00,,,0.00,,2013-03-05 09:00:00,
2013-03-05 03:43:00,49.0,37.0,-100.00,NW,308,12.0,-999.0,64,0.00,,,0.00,,2013-03-05 09:43:00,
2013-03-05 03:52:00,49.0,37.0,-100.00,NW,308,12.0,-999.0,64,0.00,,,0.00,,2013-03-05 09:52:00,
2013-03-05 04:00:00,46.0,37.0,-100.00,NW,309,14.0,-999.0,69,0.00,,,0.00,,2013-03-05 10:00:00,
2013-03-05 04:32:00,46.0,37.0,-100.00,NW,309,14.0,-999.0,69,0.00,,,0.00,,2013-03-05 10:32:00,
2013-03-05 04:42:00,46.0,37.0,-100.00,NW,309,14.0,-999.0,69,0.00,,,0.00,,2013-03-05 10:42:00,
2013-03-05 04:52:00,46.0,37.0,-100.00,NW,309,14.0,-999.0,69,0.00,,,0.00,,2013-03-05 10:52:00,
2013-03-05 05:00:00,45.0,35.0,-100.00,NW,307,10.0,-999.0,67,0.00,,,0.00,,2013-03-05 11:00:00,
2013-03-05 05:32:00,45.0,35.0,-100.00,NW,307,10.0,-999.0,67,0.00,,,0.00,,2013-03-05 11:32:00,
2013-03-05 05:42:00,45.0,35.0,-100.00,NW,307,10.0,-999.0,67,0.00,,,0.00,,2013-03-05 11:42:00,
2013-03-05 05:52:00,45.0,35.0,-100.00,NW,307,10.0,-999.0,67,0.00,,,0.00,,2013-03-05 11:52:00,
2013-03-05 06:00:00,44.0,35.0,-100.00,NW,307,9.0,-999.0,69,0.00,,,0.00,,2013-03-05 12:00:00,
2013-03-05 06:32:00,44.0,35.0,-100.00,NW,307,9.0,-999.0,69,0.00,,,0.00,,2013-03-05 12:32:00,
2013-03-05 06:42:00,44.0,35.0,-100.00,NW,307,9.0,-999.0,69,0.00,,,0.00,,2013-03-05 12:42:00,
2013-03-05 06:53:00,44.0,35.0,-100.00,NW,307,9.0,-999.0,69,0.00,,,0.00,,2013-03-05 12:53:00,
2013-03-05 07:00:00,43.0,34.0,-100.00,NW,307,12.0,-999.0,71,0.00,,,0.00,,2013-03-05 13:00:00,
2013-03-05 07:32:00,43.0,34.0,-100.00,NW,307,12.0,-999.0,71,0.00,,,0.00,,2013-03-05 13:32:00,
2013-03-05 07:42:00,43.0,34.0,-100.00,NW,307,12.0,-999.0,71,0.00,,,0.00,,2013-03-05 13:42:00,
2013-03-05 07:52:00,43.0,34.0,-100.00,NW,307,12.0,-999.0,71,0.00,,,0.00,,2013-03-05 13:52:00,
2013-03-05 08:00:00,43.0,32.0,-100.00,NW,310,14.0,-999.0,66,0.00,,,0.00,,2013-03-05 14:00:00,
2013-03-05 08:32:00,43.0,32.0,-100.00,NW,310,14.0,-999.0,66,0.00,,,0.00,,2013-03-05 14:32:00,
2013-03-05 08:42:00,43.0,32.0,-100.00,NW,310,14.0,-999.0,66,0.00,,,0.00,,2013-03-05 14:42:00,
2013-03-05 08:52:00,43.0,32.0,-100.00,NW,310,14.0,-999.0,66,0.00,,,0.00,,2013-03-05 14:52:00,
2013-03-05 09:00:00,44.0,32.0,-100.00,NW,307,10.0,-999.0,61,0.00,,,0.00,,2013-03-05 15:00:00,
2013-03-05 09:32:00,44.0,32.0,-100.00,NW,307,10.0,-999.0,61,0.00,,,0.00,,2013-03-05 15:32:00,
2013-03-05 09:42:00,44.0,32.0,-100.00,NW,307,10.0,-999.0,61,0.00,,,0.00,,2013-03-05 15:42:00,
2013-03-05 09:52:00,44.0,32.0,-100.00,NW,307,10.0,-999.0,61,0.00,,,0.00,,2013-03-05 15:52:00,
2013-03-05 10:00:00,45.0,28.0,-100.00,NW,308,11.0,-999.0,52,0.00,,,0.00,,2013-03-05 16:00:00,
2013-03-05 10:32:00,45.0,28.0,-100.00,NW,308,11.0,-999.0,52,0.00,,,0.00,,2013-03-05 16:32:00,
2013-03-05 10:42:00,45.0,28.0,-100.00,NW,308,11.0,-999.0,52,0.00,,,0.00,,2013-03-05 16:42:00,
2013-03-05 10:52:00,45.0,28.0,-100.00,NW,308,11.0,-999.0,52,0.00,,,0.00,,2013-03-05 16:52:00,
2013-03-05 11:00:00,46.0,23.0,-100.00,NW,307,13.0,-999.0,39,0.00,,,0.00,,2013-03-05 17:00:00,
2013-03-05 11:32:00,46.0,23.0,-100.00,NW,307,13.0,-999.0,39,0.00,,,0.00,,2013-03-05 17:32:00,
2013-03-05 11:42:00,46.0,23.0,-100.00,NW,307,13.0,-999.0,39,0.00,,,0.00,,2013-03-05 17:42:00,
2013-03-05 11:52:00,46.0,23.0,-100.00,NW,307,13.0,-999.0,39,0.00,,,0.00,,2013-03-05 17:52:00,
2013-03-05 12:00:00,47.0,20.0,-100.00,NW,307,11.0,-999.0,33,0.00,,,0.00,,2013-03-05 18:00:00,
2013-03-05 12:32:00,47.0,20.0,-100.00,NW,307,11.0,-999.0,33,0.00,,,0.00,,2013-03-05 18:32:00,
2013-03-05 12:42:00,47.0,20.0,-100.00,NW,307,11.0,-999.0,33,0.00,,,0.00,,2013-03-05 18:42:00,
2013-03-05 12:53:00,47.0,20.0,-100.00,NW,307,11.0,-999.0,33,0.00,,,0.00,,2013-03-05 18:53:00,
2013-03-05 13:00:00,48.0,19.0,-100.00,NW,307,11.0,-999.0,31,0.00,,,0.00,,2013-03-05 19:00:00,
2013-03-05 13:32:00,48.0,19.0,-100.00,NW,307,11.0,-999.0,31,0.00,,,0.00,,2013-03-05 19:32:00,
2013-03-05 13:42:00,48.0,19.0,-100.00,NW,307,11.0,-999.0,31,0.00,,,0.00,,2013-03-05 19:42:00,
2013-03-05 13:52:00,48.0,19.0,-100.00,NW,307,11.0,-999.0,31,0.00,,,0.00,,2013-03-05 19:52:00,
2013-03-05 14:00:00,50.0,19.0,-100.00,NW,309,7.0,-999.0,29,0.00,,,0.00,,2013-03-05 20:00:00,
2013-03-05 14:32:00,50.0,19.0,-100.00,NW,309,7.0,-999.0,29,0.00,,,0.00,,2013-03-05 20:32:00,
2013-03-05 14:42:00,50.0,19.0,-100.00,NW,309,7.0,-999.0,29,0.00,,,0.00,,2013-03-05 20:42:00,
2013-03-05 14:52:00,50.0,19.0,-100.00,NW,309,7.0,-999.0,29,0.00,,,0.00,,2013-03-05 20:52:00,
2013-03-05 15:00:00,50.0,20.0,-100.00,NW,305,8.0,-999.0,30,0.00,,,0.00,,2013-03-05 21:00:00,
2013-03-05 15:32:00,50.0,20.0,-100.00,NW,305,8.0,-999.0,30,0.00,,,0.00,,2013-03-05 21:32:00,
2013-03-05 15:42:00,50.0,20.0,-100.00,NW,305,8.0,-999.0,30,0.00,,,0.00,,2013-03-05 21:42:00,
2013-03-05 15:52:00,50.0,20.0,-100.00,NW,305,8.0,-999.0,30,0.00,,,0.00,,2013-03-05 21:52:00,
2013-03-05 16:00:00,50.0,20.0,-100.00,NW,308,8.0,-999.0,30,0.00,,,0.00,,2013-03-05 22:00:00,
2013-03-05 16:32:00,50.0,20.0,-100.00,NW,308,8.0,-999.0,30,0.00,,,0.00,,2013-03-05 22:32:00,
2013-03-05 16:42:00,50.0,20.0,-100.00,NW,308,8.0,-999.0,30,0.00,,,0.00,,2013-03-05 22:42:00,
2013-03-05 16:52:00,50.0,20.0,-100.00,NW,308,8.0,-999.0,30,0.00,,,0.00,,2013-03-05 22:52:00,
2013-03-05 17:00:00,50.0,19.0,-100.00,NW,305,8.0,-999.0,29,0.00,,,0.00,,2013-03-05 23:00:00,
2013-03-05 17:32:00,50.0,19.0,-100.00,NW,305,8.0,-999.0,29,0.00,,,0.00,,2013-03-05 23:32:00,
2013-03-05 17:42:00,50.0,19.0,-100.00,NW,305,8.0,-999.0,29,0.00,,,0.00,,2013-03-05 23:42:00,
2013-03-05 17:53:00,50.0,19.0,-100.00,NW,305,8.0,-999.0,29,0.00,,,0.00,,2013-03-05 23:53:00,
2013-03-05 18:00:00,49.0,19.0,-100.00,NW,305,5.0,-999.0,31,0.00,,,0.00,,2013-03-06 00:00:00,
2013-03-05 18:32:00,49.0,19.0,-100.00,NW,305,5.0,-999.0,31,0.00,,,0.00,,2013-03-06 00:32:00,
2013-03-05 18:42:00,49.0,19.0,-100.00,NW,305,5.0,-999.0,31,0.00,,,0.00,,2013-03-06 00:42:00,
2013-03-05 18:52:00,49.0,19.0,-100.00,NW,305,5.0,-999.0,31,0.00,,,0.00,,2013-03-06 00:52:00,
2013-03-05 19:00:00,47.0,23.0,-100.00,NW,315,5.0,-999.0,39,0.00,,,0.00,,2013-03-06 01:00:00,
2013-03-05 19:32:00,47.0,23.0,-100.00,NW,315,5.0,-999.0,39,0.00,,,0.00,,2013-03-06 01:32:00,
2013-03-05 19:42:00,47.0,23.0,-100.00,NW,315,5.0,-999.0,39,0.00,,,0.00,,2013-03-06 01:42:00,
2013-03-05 19:52:00,47.0,23.0,-100.00,NW,315,5.0,-999.0,39,0.00,,,0.00,,2013-03-06 01:52:00,
2013-03-05 20:00:00,44.0,22.0,-100.00,NW,311,2.0,-999.0,40,0.00,,,0.00,,2013-03-06 02:00:00,
2013-03-05 20:32:00,44.0,22.0,-100.00,NW,311,2.0,-999.0,40,0.00,,,0.00,,2013-03-06 02:32:00,
2013-03-05 20:42:00,44.0,22.0,-100.00,NW,311,2.0,-999.0,40,0.00,,,0.00,,2013-03-06 02:42:00,
2013-03-05 20:52:00,44.0,22.0,-100.00,NW,311,2.0,-999.0,40,0.00,,,0.00,,2013-03-06 02:52:00,
2013-03-05 21:00:00,43.0,23.0,-100.00,NW,312,2.0,-999.0,44,0.00,,,0.00,,2013-03-06 03:00:00,
2013-03-05 21:32:00,43.0,23.0,-100.00,NW,312,2.0,-999.0,44,0.00,,,0.00,,2013-03-06 03:32:00,
2013-03-05 21:42:00,43.0,23.0,-100.00,NW,312,2.0,-999.0,44,0.00,,,0.00,,2013-03-06 03:42:00,
2013-03-05 21:52:00,43.0,23.0,-100.00,NW,312,2.0,-999.0,44,0.00,,,0.00,,2013-03-06 03:52:00,
2013-03-05 22:00:00,42.0,22.0,-100.00,NW,311,1.0,-999.0,46,0.00,,,0.00,,2013-03-06 04:00:00,
2013-03-05 22:32:00,42.0,22.0,-100.00,NW,311,1.0,-999.0,46,0.00,,,0.00,,2013-03-06 04:32:00,
2013-03-05 22:42:00,42.0,22.0,-100.00,NW,311,1.0,-999.0,46,0.00,,,0.00,,2013-03-06 04:42:00,
2013-03-05 22:52:00,42.0,22.0,-100.00,NW,311,1.0,-999.0,46,0.00,,,0.00,,2013-03-06 04:52:00,
2013-03-05 23:00:00,41.0,21.0,-100.00,NW,310,3.0,-999.0,45,0.00,,,0.00,,2013-03-06 05:00:00,
2013-03-05 23:32:00,41.0,21.0,-100.00,NW,310,3.0,-999.0,45,0.00,,,0.00,,2013-03-06 05:32:00,
2013-03-05 23:42:00,41.0,21.0,-100.00,NW,310,3.0,-999.0,45,0.00,,,0.00,,2013-03-06 05:42:00,
2013-03-05 23:52:00,41.0,21.0,-100.00,NW,310,3.0,-999.0,45,0.00,,,0.00,,2013-03-06 05:52:00,